AR1470 SAZM-SABE

Flight info

Callsign AR1470
Flight time 0h 45m
Altitude 31000
Route PULP1G PULPA DCT TENIL TENI8Q
Aircraft A320/M-L/S

Departure

Time 2026-04-25 01:14
Airport Ástor Piazzola International Airport (SAZM)

Arrival

Time 2026-04-25 01:59
Airport Aeroparque Jorge Newbery (SABE)
Time Latitude Longitude Altitude Speed Heading
2026-04-25 00:44 -37.93280 -57.58043 69 ft 0 kts 275°
2026-04-25 01:09 -37.93280 -57.58044 76 ft 1 kts 275°
2026-04-25 01:09 -37.93284 -57.58056 69 ft 1 kts 218°
2026-04-25 01:09 -37.93293 -57.58054 68 ft 3 kts 178°
2026-04-25 01:09 -37.93329 -57.58066 67 ft 7 kts 178°
2026-04-25 01:10 -37.93370 -57.58009 71 ft 12 kts 116°
2026-04-25 01:10 -37.93416 -57.57894 70 ft 17 kts 119°
2026-04-25 01:10 -37.93481 -57.57748 70 ft 21 kts 119°
2026-04-25 01:10 -37.93559 -57.57573 67 ft 24 kts 119°
2026-04-25 01:11 -37.93647 -57.57374 71 ft 27 kts 119°
2026-04-25 01:11 -37.93746 -57.57153 68 ft 30 kts 119°
2026-04-25 01:11 -37.93853 -57.56913 68 ft 33 kts 119°
2026-04-25 01:11 -37.93961 -57.56660 63 ft 32 kts 119°
2026-04-25 01:12 -37.94035 -57.56475 67 ft 19 kts 83°
2026-04-25 01:12 -37.94018 -57.56421 69 ft 0 kts 63°
2026-04-25 01:12 -37.94014 -57.56411 64 ft 4 kts 65°
2026-04-25 01:13 -37.93992 -57.56358 64 ft 10 kts 52°
2026-04-25 01:13 -37.93923 -57.56349 65 ft 13 kts 309°
2026-04-25 01:13 -37.93865 -57.56466 67 ft 23 kts 303°
2026-04-25 01:13 -37.93657 -57.56873 68 ft 87 kts 302°
2026-04-25 01:14 -37.93212 -57.57733 115 ft 139 kts 301°
2026-04-25 01:14 -37.92717 -57.58750 720 ft 134 kts 299°
2026-04-25 01:14 -37.92226 -57.59761 1295 ft 140 kts 300°
2026-04-25 01:14 -37.91655 -57.60911 1635 ft 169 kts 303°
2026-04-25 01:15 -37.90615 -57.61807 1861 ft 204 kts 341°
2026-04-25 01:15 -37.89082 -57.62075 2134 ft 237 kts 351°
2026-04-25 01:15 -37.87378 -57.62242 2768 ft 250 kts 351°
2026-04-25 01:15 -37.85627 -57.62453 3535 ft 256 kts 349°
2026-04-25 01:16 -37.83835 -57.62715 4324 ft 262 kts 349°
2026-04-25 01:16 -37.82007 -57.63012 5135 ft 267 kts 349°
2026-04-25 01:16 -37.80165 -57.63327 6077 ft 267 kts 348°
2026-04-25 01:16 -37.78329 -57.63649 7074 ft 266 kts 348°
2026-04-25 01:17 -37.76510 -57.63975 7969 ft 269 kts 348°
2026-04-25 01:17 -37.75252 -57.64202 8552 ft 272 kts 348°
2026-04-25 01:17 -37.73364 -57.64544 9421 ft 276 kts 348°
2026-04-25 01:17 -37.70815 -57.65008 10398 ft 287 kts 348°
2026-04-25 01:18 -37.68770 -57.65385 10728 ft 308 kts 348°
2026-04-25 01:18 -37.67301 -57.65656 10954 ft 322 kts 348°
2026-04-25 01:18 -37.64288 -57.66205 11737 ft 336 kts 348°
2026-04-25 01:18 -37.62713 -57.66489 12246 ft 340 kts 348°
2026-04-25 01:19 -37.60359 -57.66913 13070 ft 343 kts 347°
2026-04-25 01:19 -37.57986 -57.67341 13909 ft 346 kts 347°
2026-04-25 01:19 -37.55621 -57.67768 14628 ft 349 kts 347°
2026-04-25 01:19 -37.53200 -57.68206 15351 ft 353 kts 347°
2026-04-25 01:20 -37.50747 -57.68650 16083 ft 357 kts 347°
2026-04-25 01:20 -37.48276 -57.69096 16813 ft 360 kts 347°
2026-04-25 01:20 -37.45784 -57.69547 17530 ft 364 kts 347°
2026-04-25 01:20 -37.43255 -57.70004 18228 ft 368 kts 347°
2026-04-25 01:21 -37.40709 -57.70463 18857 ft 371 kts 347°
2026-04-25 01:21 -37.38138 -57.70923 19483 ft 374 kts 348°
2026-04-25 01:21 -37.35531 -57.70946 20071 ft 383 kts 357°
2026-04-25 01:21 -37.32857 -57.70765 20690 ft 387 kts 358°
2026-04-25 01:22 -37.30161 -57.70539 21286 ft 390 kts 358°
2026-04-25 01:22 -37.27439 -57.70310 21867 ft 393 kts 358°
2026-04-25 01:22 -37.24697 -57.70085 22443 ft 397 kts 358°
2026-04-25 01:22 -37.21928 -57.69863 23014 ft 400 kts 357°
2026-04-25 01:23 -37.19136 -57.69641 23568 ft 403 kts 357°
2026-04-25 01:23 -37.16330 -57.69421 24018 ft 406 kts 357°
2026-04-25 01:23 -37.13494 -57.69199 24480 ft 408 kts 357°
2026-04-25 01:23 -37.10647 -57.68977 24928 ft 411 kts 357°
2026-04-25 01:24 -37.07784 -57.68754 25368 ft 413 kts 357°
2026-04-25 01:24 -37.04911 -57.68531 25795 ft 415 kts 356°
2026-04-25 01:24 -37.02018 -57.68306 26221 ft 417 kts 356°
2026-04-25 01:24 -36.99159 -57.68223 26632 ft 415 kts 351°
2026-04-25 01:25 -36.96270 -57.68442 27035 ft 415 kts 349°
2026-04-25 01:25 -36.93386 -57.68745 27441 ft 417 kts 348°
2026-04-25 01:25 -36.90486 -57.69063 27838 ft 419 kts 348°
2026-04-25 01:25 -36.87570 -57.69382 28228 ft 421 kts 348°
2026-04-25 01:26 -36.84645 -57.69698 28584 ft 423 kts 348°
2026-04-25 01:26 -36.81701 -57.70015 28959 ft 425 kts 348°
2026-04-25 01:26 -36.78745 -57.70332 29326 ft 428 kts 348°
2026-04-25 01:26 -36.75774 -57.70650 29682 ft 430 kts 348°
2026-04-25 01:27 -36.72787 -57.70968 30128 ft 429 kts 348°
2026-04-25 01:27 -36.69815 -57.71282 30568 ft 427 kts 348°
2026-04-25 01:27 -36.66855 -57.71596 30975 ft 426 kts 347°
2026-04-25 01:28 -36.60952 -57.72223 31690 ft 425 kts 347°
2026-04-25 01:28 -36.58002 -57.72536 32058 ft 424 kts 347°
2026-04-25 01:28 -36.55095 -57.72844 32409 ft 424 kts 347°
2026-04-25 01:28 -36.52160 -57.73155 32769 ft 423 kts 347°
2026-04-25 01:29 -36.49225 -57.73466 33020 ft 424 kts 347°
2026-04-25 01:29 -36.46281 -57.73779 33056 ft 424 kts 347°
2026-04-25 01:29 -36.40407 -57.74398 33056 ft 423 kts 347°
2026-04-25 01:30 -36.34544 -57.75017 33056 ft 422 kts 347°
2026-04-25 01:30 -36.28669 -57.75636 33056 ft 422 kts 347°
2026-04-25 01:31 -36.22849 -57.76249 33043 ft 422 kts 347°
2026-04-25 01:31 -36.16980 -57.76866 33055 ft 423 kts 347°
2026-04-25 01:32 -36.11112 -57.77481 33058 ft 423 kts 347°
2026-04-25 01:32 -36.05227 -57.78097 33059 ft 423 kts 347°
2026-04-25 01:33 -35.99353 -57.78712 33057 ft 424 kts 347°
2026-04-25 01:33 -35.93503 -57.79323 33057 ft 425 kts 347°
2026-04-25 01:34 -35.87617 -57.79936 33060 ft 425 kts 347°
2026-04-25 01:34 -35.81721 -57.80550 33047 ft 425 kts 347°
2026-04-25 01:35 -35.75817 -57.81164 33059 ft 425 kts 347°
2026-04-25 01:35 -35.69945 -57.81774 33057 ft 425 kts 347°
2026-04-25 01:36 -35.64044 -57.82385 33056 ft 425 kts 347°
2026-04-25 01:36 -35.58144 -57.82996 33058 ft 426 kts 346°
2026-04-25 01:37 -35.52229 -57.83627 33051 ft 426 kts 346°
2026-04-25 01:37 -35.46324 -57.84303 33054 ft 426 kts 346°
2026-04-25 01:38 -35.40425 -57.84980 33039 ft 426 kts 346°
2026-04-25 01:38 -35.34509 -57.85658 33056 ft 427 kts 346°
2026-04-25 01:39 -35.28634 -57.86327 32744 ft 423 kts 346°
2026-04-25 01:39 -35.25713 -57.86657 32325 ft 419 kts 346°
2026-04-25 01:39 -35.22809 -57.86989 31671 ft 421 kts 346°
2026-04-25 01:40 -35.19885 -57.87325 30983 ft 423 kts 347°
2026-04-25 01:40 -35.16944 -57.87662 30345 ft 424 kts 347°
2026-04-25 01:40 -35.14007 -57.87995 29821 ft 421 kts 347°
2026-04-25 01:40 -35.11108 -57.88322 29349 ft 416 kts 347°
2026-04-25 01:41 -35.08232 -57.88646 28856 ft 412 kts 347°
2026-04-25 01:41 -35.05395 -57.88968 28375 ft 408 kts 347°
2026-04-25 01:41 -35.02640 -57.89552 27872 ft 396 kts 337°
2026-04-25 01:41 -35.00188 -57.90830 27369 ft 383 kts 323°
2026-04-25 01:42 -34.98134 -57.92800 26929 ft 371 kts 310°
2026-04-25 01:42 -34.96606 -57.95278 26473 ft 363 kts 296°
2026-04-25 01:42 -34.95628 -57.98081 26011 ft 358 kts 287°
2026-04-25 01:42 -34.94914 -58.00978 25556 ft 356 kts 285°
2026-04-25 01:43 -34.94247 -58.03872 25099 ft 354 kts 285°
2026-04-25 01:43 -34.93583 -58.06751 24633 ft 352 kts 285°
2026-04-25 01:43 -34.92914 -58.09622 24160 ft 351 kts 285°
2026-04-25 01:43 -34.92243 -58.12476 23707 ft 350 kts 285°
2026-04-25 01:44 -34.91571 -58.15322 23147 ft 349 kts 285°
2026-04-25 01:44 -34.90899 -58.18156 22669 ft 347 kts 285°
2026-04-25 01:44 -34.90231 -58.20966 22207 ft 344 kts 285°
2026-04-25 01:44 -34.89564 -58.23767 21705 ft 342 kts 285°
2026-04-25 01:45 -34.88902 -58.26541 21226 ft 340 kts 285°
2026-04-25 01:45 -34.88243 -58.29300 20745 ft 338 kts 285°
2026-04-25 01:45 -34.87586 -58.32047 20266 ft 337 kts 285°
2026-04-25 01:45 -34.86931 -58.34784 19782 ft 337 kts 285°
2026-04-25 01:46 -34.86276 -58.37521 19293 ft 336 kts 285°
2026-04-25 01:46 -34.85619 -58.40259 18805 ft 336 kts 285°
2026-04-25 01:46 -34.84971 -58.42956 18316 ft 337 kts 285°
2026-04-25 01:46 -34.84311 -58.45702 17769 ft 337 kts 285°
2026-04-25 01:47 -34.83653 -58.48436 17277 ft 336 kts 285°
2026-04-25 01:47 -34.82962 -58.51147 16770 ft 335 kts 289°
2026-04-25 01:47 -34.81875 -58.53654 16285 ft 336 kts 304°
2026-04-25 01:47 -34.80250 -58.55708 15788 ft 338 kts 316°
2026-04-25 01:48 -34.78432 -58.57536 15280 ft 339 kts 318°
2026-04-25 01:48 -34.76589 -58.59317 14726 ft 338 kts 319°
2026-04-25 01:48 -34.74746 -58.61097 14253 ft 338 kts 319°
2026-04-25 01:48 -34.72905 -58.62882 13724 ft 338 kts 319°
2026-04-25 01:49 -34.71071 -58.64666 13173 ft 337 kts 319°
2026-04-25 01:49 -34.69247 -58.66442 12644 ft 335 kts 319°
2026-04-25 01:49 -34.67436 -58.68207 12138 ft 333 kts 319°
2026-04-25 01:49 -34.65628 -58.69971 11607 ft 332 kts 319°
2026-04-25 01:50 -34.63828 -58.71726 11094 ft 332 kts 319°
2026-04-25 01:50 -34.62052 -58.73456 10577 ft 331 kts 319°
2026-04-25 01:50 -34.60265 -58.75197 10212 ft 324 kts 319°
2026-04-25 01:50 -34.58545 -58.76868 10145 ft 309 kts 319°
2026-04-25 01:51 -34.56793 -58.78272 10037 ft 298 kts 334°
2026-04-25 01:51 -34.54796 -58.78856 9648 ft 298 kts 356°
2026-04-25 01:51 -34.52731 -58.78745 9147 ft 296 kts
2026-04-25 01:51 -34.50692 -58.78486 8651 ft 291 kts
2026-04-25 01:52 -34.48704 -58.78220 8237 ft 284 kts
2026-04-25 01:52 -34.46756 -58.77967 7836 ft 279 kts
2026-04-25 01:52 -34.44826 -58.77726 7427 ft 279 kts
2026-04-25 01:52 -34.42892 -58.77490 7031 ft 280 kts
2026-04-25 01:53 -34.40957 -58.77242 6625 ft 280 kts
2026-04-25 01:53 -34.39104 -58.76536 6201 ft 282 kts 28°
2026-04-25 01:53 -34.37689 -58.74919 5784 ft 283 kts 58°
2026-04-25 01:53 -34.37090 -58.72674 5353 ft 283 kts 87°
2026-04-25 01:54 -34.37452 -58.70361 4952 ft 281 kts 116°
2026-04-25 01:54 -34.38562 -58.68471 4484 ft 281 kts 133°
2026-04-25 01:54 -34.39912 -58.66774 4064 ft 280 kts 135°
2026-04-25 01:54 -34.41293 -58.65105 3654 ft 279 kts 135°
2026-04-25 01:55 -34.42660 -58.63444 3264 ft 278 kts 134°
2026-04-25 01:55 -34.44011 -58.61787 3008 ft 271 kts 134°
2026-04-25 01:55 -34.45297 -58.60199 2966 ft 256 kts 134°
2026-04-25 01:55 -34.46413 -58.58621 2965 ft 238 kts 124°
2026-04-25 01:56 -34.47348 -58.56939 2858 ft 244 kts 122°
2026-04-25 01:56 -34.48276 -58.55283 2549 ft 230 kts 123°
2026-04-25 01:56 -34.49152 -58.53732 2205 ft 216 kts 122°
2026-04-25 01:56 -34.49964 -58.52277 1912 ft 201 kts 122°
2026-04-25 01:57 -34.51399 -58.49704 1441 ft 169 kts 122°
2026-04-25 01:57 -34.52031 -58.48570 1215 ft 154 kts 121°
2026-04-25 01:57 -34.52605 -58.47539 1021 ft 142 kts 122°
2026-04-25 01:58 -34.53150 -58.46561 838 ft 138 kts 122°
2026-04-25 01:58 -34.53684 -58.45601 658 ft 136 kts 123°
2026-04-25 01:58 -34.54211 -58.44655 465 ft 135 kts 122°
2026-04-25 01:58 -34.54724 -58.43732 279 ft 132 kts 122°
2026-04-25 01:59 -34.55234 -58.42809 115 ft 130 kts 122°
2026-04-25 01:59 -34.55739 -58.41907 27 ft 124 kts 124°
2026-04-25 01:59 -34.56158 -58.41154 28 ft 84 kts 126°
2026-04-25 01:59 -34.56394 -58.40681 26 ft 26 kts 89°
2026-04-25 02:00 -34.56385 -58.40659 26 ft 0 kts 22°
2026-04-25 02:00 -34.56383 -58.40659 26 ft 2 kts 11°
2026-04-25 02:01 -34.56343 -58.40678 28 ft 11 kts 327°
2026-04-25 02:01 -34.56266 -58.40765 27 ft 19 kts 310°
2026-04-25 02:01 -34.56165 -58.40913 27 ft 26 kts 309°
2026-04-25 02:01 -34.56046 -58.41102 27 ft 29 kts 305°
2026-04-25 02:02 -34.55957 -58.41184 27 ft 13 kts 355°
2026-04-25 02:02 -34.55885 -58.41207 27 ft 8 kts 308°
2026-04-25 02:02 -34.55863 -58.41271 27 ft 9 kts 253°
2026-04-25 02:02 -34.55870 -58.41303 27 ft 3 kts 294°
2026-04-25 02:03 -34.55841 -58.41330 27 ft 8 kts 331°
2026-04-25 02:03 -34.55782 -58.41337 27 ft 9 kts 24°
2026-04-25 02:03 -34.55761 -58.41321 27 ft 0 kts 37°